Showing default

TIANPING 1B, 43714

Orbit data source: Space-Track

TIANPING 1B, 43714 is a payload satellite owned by Guoxing (CN) in SSO that was launched on Mon, 19 Nov 2018 UTC via a CHANG ZHENG 2D launch vehicle from the Jiuquan Satellite Launch Center, China (JSC). Payload-class satellites include a variety of spacecraft equipped with specific instruments for various scientific and technological missions. These include communications satellites like Starlink; space stations such as the ISS; scientific satellites like the Hubble; Earth observation satellites from companies like Planet Labs, Umbra, and HawkEye 360; GPS; miniature CubeSats for education and research; and military/defense satellites.

Loading next visibility...
Identifier
43714, 2018-094E
Orbit
SSO
Country
Flag of CNCN / PRC
Related business
Manufacturer
DFH Shenzhen
Mission
Operational Commercial Calibration
Bus & Motor
PINA, Unknown motor
Mass
10 kg wet, ~10 kg dry
Launch date (UTC)
2018-11-19 (7 years ago)
Launch vehicle
CHANG ZHENG 2D
Launch site
Jiuquan Satellite Launch Center, China (JSC)
Object type
Payload
Rocket body
Debris
Shape & HBR
Box + 2 Pan, 0.3 m
Radar Cross Section
0.048 m², Medium (>0.1 m² and < 1m²)

Expand to show TLE details & history
Last TLE update: 4 hours ago

TLE from 4 hours ago
0 TIANPING 1B
1 43714U 18094E   25261.28447080  .00180784  14057-4  57433-3 0  9994
2 43714  97.3001 300.4478 0002224  98.2068 261.9458 15.91194949382099
Epoch: 2025-09-18T06:49Z
TLE epoch observation values (Epoch: 2025-09-18T06:49:38.277Z)
Latitude
-0°
Longitude
-159.40996°
Altitude
302.336 km
Speed
7.726 km/s
True Right ascension
20h 01m 47s
True Declination
0° 00' 00"
Sunlit
Object was in full shadow at epoch
Visualization orbit readout
Latitude
Unknown
Longitude
Unknown
Altitude
Unknown
Speed
Unknown
Apparent Right ascension
Unknown
Apparent Declination
Unknown
Sunlit
N/A
Visualization observer readout
Local Sidereal Time
04:05:06
Azimuth
Unknown
Elevation
Unknown
Doppler factor
Unknown
Orbital elements
Apogee altitude
297.289 km
Perigee altitude
294.321 km
Semi-major axis
6,673.942 km
Eccentricity
0.00022
Inclination
97.3001°
RAAN
300.4478°
Arg. of periapsis
98.2068°
True anomaly
261.92057°
Mean anomaly
261.9458°
Eccentric anomaly
261.93318°
Mean motion
3.98079 °/min
Orbital period
90.43 mins
BSTAR
0.00057433
Loading maneuver chart data...
Computing Atmospheric mass density...
Loading historical data...
Loading historical data...
Loading historical data...
Loading historical data...
Loading historical data...
Loading historical data...
Loading historical data...

Documentation

Showing up to 5 results
|